Weather in Parakou

Benin     9°21′36″N   2°37′16″E
temp.,
°C
wind,
m/s
gust,
m/s
humid.,
%
clouds,
%
prec.,
mm/h
press.,
hPa
HPBL,
m
15 august, mon
mon1501:00+22wsw249993 4.0 1012183
04:00+21sw3798100 1.3 1010331
07:00+21ssw2699100 1.3 1011280
10:00+22ssw359594 0.1 1012380
13:00+24sw468859 1.2 1011632
16:00+23s479272 1.3 1009558
19:00+21ssw499794 2.3 1010490
22:00+21s499897 0.0 1012523
16 august, tue
tue1601:00+21s4998100 0.3 1012652
04:00+21ssw41098100 0.1 1011637
07:00+21ssw31098100 0.2 1012653
10:00+21ssw41096100 0.3 1014664
13:00+22ssw41093100 0.6 1013717
16:00+23sw3688100 0.4 1011730
19:00+22s249696 1.3 1013139
22:00+21s2497100 0.0 1014150
17 august, wed
wed1701:00+21ssw2898100 0.1 1014466
04:00+21s379783 0.5 1013411
07:00+20ssw269797 1.2 1014374
10:00+23s348984 0.1 1015547
13:00+25ssw347944 0.3 1014719
16:00+25sw348324 2.2 1011728
19:00+23wsw12915 3.4 101214
22:00+22ssw119581 0.0 101411
18 august, thu
thu1801:00+21sw229745 0.0 101338
04:00+21sw129766 0.0 101239
07:00+21sw239865 0.3 1014107
10:00+24sw348399 0.0 1015611
13:00+26sw2374100 0.8 10131010
16:00+23w2495100 3.3 1011279
19:00+22sw2397100 3.6 1011112
22:00+22wsw2597100 0.2 1013158
19 august, fri
fri1901:00+22sw1297100 0.6 101254
04:00+21ssw2499100 0.3 1011147
07:00+21sw2599100 1.0 1013312
10:00+22ssw3595100 0.9 1014395
13:00+25ssw458389 2.1 1012790
16:00+25sw458490 3.1 1010826
19:00+22ssw379517 6.6 1011332
22:00+21s399758 1.5 1013459